[[{"header":{"parameterUnit":"m.s-1","parameterCategory":2,"la1":30.2991,"la2":30.254,"lo1":-89.0895,"lo2":-89.0444,"dy":0.0017,"dx":0.0017,"nx":28,"ny":28,"refTime":"2025-01-30T09:00:00:Z","depth":"0","parameterNumber":2,"parameterNumberName":"U-component_of_CURRENTS"},"data":[0,0,0,0,0,0,0,0,0,0,0,0,0,0,0,0,0,0,0,0,0,0,0,0,0,0,0,0,0,0,0,0,0,0,0,0,0,0,0,0,0,0,0,0,0,0,0,0,0,0,0,0,0,0,0,0,0,0,0.2256,0.2256,0,0.2254,0.2254,0.2254,0.2243,0.2243,0.2243,0.2243,0.2235,0.2235,0.2235,0,0,0,0,0,0,0,0,0,0,0,0,0,0.2267,0.2266,0.2256,0.2256,0.2257,0.2254,0.2254,0.2254,0.2243,0.2243,0.2243,0.2243,0.2235,0.2235,0.2235,0,0,0,0,0,0,0,0,0,0,0,0,0,0.2262,0.2266,0.2256,0.2252,0.2251,0.2254,0.2254,0.2254,0.2243,0.2243,0.2243,0.2243,0.2235,0.2235,0.2235,0.2239,0,0,0.2234,0.2234,0,0,0,0,0,0,0,0,0.2262,0.2262,0.2252,0.2252,0.2252,0.225,0.2255,0.2249,0.2244,0.2245,0.2243,0.2243,0.224,0.224,0.2238,0.2238,0.2238,0.2234,0.2234,0.2234,0.2234,0,0,0,0,0,0,0,0.2263,0.2262,0.2254,0.2252,0.2252,0.2255,0.2254,0.2254,0.2243,0.2245,0.2245,0.2246,0.224,0.2238,0.2238,0.2238,0.2234,0.2234,0.2234,0.2234,0.2277,0.2278,0,0,0,0,0,0,0.2264,0.2262,0.2255,0.2255,0.2258,0.2255,0.2254,0.225,0.2243,0.2242,0.2246,0.2246,0.2239,0.2238,0.2238,0.2265,0.2234,0.2234,0.2234,0.2276,0.2277,0.2278,0,0,0,0,0,0,0.2265,0.2264,0.2255,0.2259,0.2259,0.2255,0.2251,0.225,0.2251,0.2245,0.2243,0.2249,0.2239,0.2238,0.2249,0.2264,0.2234,0.2234,0.2274,0.2276,0.2278,0.2305,0,0,0,0,0,0,0.2265,0.2263,0.2263,0.2259,0.2258,0.2261,0.2251,0.225,0.2253,0.2252,0.2246,0.2245,0.2238,0.2249,0.2249,0.2263,0.2234,0.2273,0.2275,0.2277,0.2303,0.2308,0.2312,0,0,0,0,0,0.2265,0.2264,0.2263,0.2262,0.2257,0.2262,0.2262,0.2258,0.2253,0.2257,0.2258,0.2245,0.2263,0.225,0.2249,0.2264,0.2272,0.2274,0.2277,0.2301,0.2307,0.2312,0,0,0,0,0,0,0.2267,0.2263,0.2262,0.2259,0.2263,0.226,0.2263,0.2261,0.2265,0.2265,0.2257,0.2256,0.2274,0.2268,0.2253,0.2285,0.2267,0.227,0.2286,0.2291,0.2296,0.2293,0.2234,0,0,0,0,0,0.2269,0.2266,0.2267,0.2265,0.2268,0.2267,0.2268,0.2269,0.2271,0.2271,0.2269,0.2273,0.2284,0.2286,0.2292,0.2305,0.231,0.2317,0.2322,0.2325,0.2325,0.2362,0.237,0.2287,0.2287,0.2287,0,0,0.2268,0.2267,0.2264,0.2266,0.2267,0.2272,0.2267,0.2273,0.2279,0.2271,0.2279,0.2288,0.2293,0.2311,0.2318,0.2306,0.2351,0.2329,0.2332,0.2329,0.2366,0.2374,0.2381,0.2289,0.2289,0.2288,0,0,0.2266,0.2266,0.2264,0.2271,0.2278,0.2279,0.2283,0.2287,0.2291,0.2306,0.2305,0.2326,0.2334,0.2343,0.2348,0.2383,0.2376,0.2386,0.2403,0.244,0.2447,0.2453,0.2464,0.2471,0.2386,0.2386,0.2386,0,0.2267,0.2262,0.2266,0.2271,0.2278,0.2283,0.229,0.2296,0.2304,0.232,0.2315,0.2354,0.2351,0.2383,0.2391,0.2392,0.2404,0.2378,0.2445,0.2451,0.2457,0.2467,0.2475,0.2388,0.2387,0.2387,0.2387,0,0.2265,0.2266,0.2268,0.2273,0.2285,0.2292,0.2305,0.232,0.2331,0.2345,0.2384,0.2391,0.2417,0.2421,0.2412,0.2455,0.2446,0.2448,0.2428,0.2467,0.2475,0.2482,0.239,0.2389,0.2389,0.2388,0,0,0.2251,0.2262,0.2262,0.2265,0.2288,0.2292,0.232,0.2347,0.2368,0.2392,0.2426,0.245,0.2464,0.2472,0.2471,0.2493,0.2536,0.2484,0.2485,0.249,0.2604,0.2562,0.2565,0.2553,0.2555,0.2556,0.2591,0,0.2246,0.225,0.2263,0.2271,0.2275,0.2303,0.2324,0.2357,0.2389,0.2424,0.2458,0.2484,0.248,0.2492,0.2521,0.2535,0.2557,0.2525,0.2571,0.2571,0.2525,0.2573,0.2491,0.2512,0.2597,0.2599,0.2599,0,0.2235,0.2241,0.2246,0.2268,0.2274,0.2283,0.2329,0.2352,0.2415,0.2447,0.2501,0.2522,0.2564,0.2549,0.261,0.2592,0.2599,0.2606,0.2608,0.2562,0.2543,0.249,0.2522,0.2452,0.261,0.2609,0.2609,0,0.2211,0.2226,0.2227,0.2234,0.2263,0.2279,0.2301,0.2362,0.2392,0.2462,0.2497,0.256,0.2588,0.2625,0.2646,0.2633,0.2705,0.2692,0.266,0.2656,0.2591,0.2579,0.2556,0.2733,0.2733,0.2733,0.2733,0,0.2195,0.2194,0.2211,0.221,0.222,0.2257,0.2285,0.2326,0.2394,0.2436,0.2501,0.2546,0.261,0.2657,0.2669,0.2693,0.2733,0.267,0.2671,0.2597,0.2586,0.2525,0.2475,0.2735,0.2734,0.2734,0.2734,0,0.2162,0.2173,0.2172,0.2196,0.2204,0.2212,0.2264,0.2289,0.2362,0.2421,0.2443,0.2549,0.2616,0.2665,0.2725,0.2716,0.2644,0.2732,0.2627,0.2615,0.25,0.2455,0.2241,0.2203,0.2699,0.2699,0.2698,0,0.2143,0.2138,0.215,0.2147,0.2153,0.2175,0.2191,0.2264,0.2298,0.242,0.2442,0.2536,0.2588,0.2668,0.2679,0.2698,0.261,0.2624,0.2581,0.2488,0.2439,0.2251,0.2223,0.2504,0.2502,0.25,0.2499,0,0.211,0.2111,0.211,0.2102,0.2105,0.2112,0.2143,0.2165,0.2257,0.2314,0.239,0.2441,0.2536,0.2539,0.2581,0.2584,0.2464,0.2587,0.253,0.2315,0.2069,0.2036,0.2473,0.2483,0.2485,0.2486,0.2487,0.2487,0.2083,0.2068,0.2061,0.2046,0.2047,0.2032,0.2021,0.2068,0.2108,0.2176,0.2286,0.2335,0.2426,0.2474,0.2457,0.2385,0.2328,0.232,0.2282,0.2106,0.2027,0.2415,0.2403,0.2404,0.2405,0.2405,0.2406,0,0.2039,0.2021,0.2006,0.1974,0.1944,0.1968,0.1972,0.1953,0.1966,0.2064,0.2122,0.22,0.2208,0.2256,0.223,0.2117,0.1981,0.204,0.1786,0.1792,0.2192,0.2147,0.2031,0.2031,0.2031,0.2032,0.2032,0.2032,0.2015,0.1976,0.1956,0.1876,0.1854,0.179,0.1776,0.1767,0.1807,0.1842,0.1887,0.1968,0.2045,0.2,0.1902,0.1868,0.1698,0.152,0.1543,0.1868,0.1891,0.1913,0.1862,0.1688,0.1687,0.107,0.1066,0.1062]},{"header":{"parameterUnit":"m.s-1","parameterCategory":2,"la1":30.2991,"la2":30.254,"lo1":-89.0895,"lo2":-89.0444,"dy":0.0017,"dx":0.0017,"nx":28,"ny":28,"refTime":"2025-01-30T09:00:00:Z","depth":"0","parameterNumber":3,"parameterNumberName":"V-component_of_CURRENTS"},"data":[0,0,0,0,0,0,0,0,0,0,0,0,0,0,0,0,0,0,0,0,0,0,0,0,0,0,0,0,0,0,0,0,0,0,0,0,0,0,0,0,0,0,0,0,0,0,0,0,0,0,0,0,0,0,0,0,0,0,0.0462,0.0462,0,0.0448,0.0448,0.0447,0.043,0.0429,0.0429,0.0429,0.0396,0.0395,0.0394,0,0,0,0,0,0,0,0,0,0,0,0,0,0.0433,0.0434,0.0462,0.0462,0.0462,0.0448,0.0448,0.0447,0.043,0.0429,0.0429,0.0429,0.0396,0.0395,0.0394,0,0,0,0,0,0,0,0,0,0,0,0,0,0.0434,0.0434,0.0462,0.0452,0.0451,0.0448,0.0448,0.0447,0.043,0.0429,0.0429,0.0429,0.0396,0.0395,0.0394,0.0393,0,0,0.0391,0.039,0,0,0,0,0,0,0,0,0.0434,0.0435,0.0454,0.0453,0.0452,0.0441,0.0425,0.0429,0.043,0.0437,0.0429,0.0429,0.041,0.0408,0.0405,0.0392,0.039,0.0391,0.039,0.039,0.0389,0,0,0,0,0,0,0,0.0434,0.0435,0.0455,0.0454,0.0452,0.0434,0.0435,0.0426,0.0424,0.0436,0.0435,0.0435,0.0409,0.0406,0.0404,0.039,0.0391,0.039,0.0389,0.0389,0.0377,0.0378,0,0,0,0,0,0,0.0441,0.0436,0.0456,0.0455,0.0443,0.0436,0.0436,0.0444,0.0424,0.0422,0.0435,0.0434,0.0408,0.0405,0.0402,0.0414,0.039,0.0389,0.0388,0.0377,0.0377,0.0378,0,0,0,0,0,0,0.044,0.0443,0.0456,0.0445,0.0446,0.0437,0.0446,0.0444,0.0443,0.0424,0.0421,0.0437,0.0407,0.0404,0.0403,0.0412,0.0388,0.0387,0.0377,0.0377,0.0378,0.0428,0,0,0,0,0,0,0.0439,0.0443,0.0449,0.0446,0.0447,0.0461,0.0446,0.0444,0.0444,0.0442,0.0424,0.0421,0.0407,0.0404,0.0402,0.041,0.0386,0.0376,0.0377,0.0377,0.0426,0.043,0.0433,0,0,0,0,0,0.0439,0.0452,0.0449,0.0452,0.0456,0.0461,0.046,0.0451,0.0444,0.0448,0.0438,0.0422,0.0406,0.0404,0.0401,0.0409,0.0376,0.0377,0.0377,0.0424,0.0429,0.0433,0,0,0,0,0,0,0.0441,0.0452,0.0448,0.0464,0.0464,0.0459,0.0462,0.0455,0.045,0.0448,0.0429,0.0426,0.0425,0.0411,0.0409,0.0406,0.0387,0.0387,0.0423,0.0428,0.0432,0.0445,0.0386,0,0,0,0,0,0.0445,0.0459,0.0462,0.0473,0.0476,0.0469,0.0469,0.0464,0.046,0.0457,0.0448,0.0435,0.0426,0.0422,0.0411,0.0413,0.0396,0.0414,0.0418,0.0422,0.043,0.0413,0.0416,0.038,0.038,0.038,0,0,0.0448,0.0456,0.0463,0.0474,0.0474,0.0489,0.0469,0.0474,0.0485,0.0454,0.0467,0.0448,0.0429,0.0431,0.0429,0.0421,0.0423,0.0423,0.0426,0.0432,0.0414,0.0418,0.0421,0.0381,0.0381,0.0381,0,0,0.0465,0.0471,0.0489,0.0496,0.0502,0.0501,0.0505,0.0504,0.0503,0.0511,0.049,0.0481,0.0471,0.046,0.0453,0.0471,0.0443,0.0463,0.0496,0.048,0.0483,0.0485,0.0469,0.0469,0.0466,0.0467,0.0467,0,0.0466,0.0495,0.0493,0.0515,0.0527,0.0511,0.0534,0.0532,0.0531,0.0537,0.0521,0.0508,0.0487,0.0492,0.0494,0.0481,0.0466,0.0482,0.0486,0.0488,0.0489,0.0472,0.0472,0.0469,0.0469,0.0469,0.0468,0,0.0501,0.0523,0.0536,0.0563,0.0572,0.0589,0.0591,0.0598,0.0592,0.0591,0.0593,0.0564,0.0557,0.0545,0.0525,0.0527,0.051,0.0492,0.0476,0.0496,0.0476,0.0475,0.0473,0.0472,0.0471,0.047,0,0,0.0509,0.0552,0.0558,0.0584,0.0601,0.0617,0.0636,0.0654,0.0676,0.0659,0.0682,0.0653,0.0632,0.0621,0.059,0.0574,0.0564,0.054,0.0538,0.0528,0.0527,0.0534,0.0533,0.0546,0.0546,0.0546,0.0509,0,0.0537,0.0593,0.0604,0.0654,0.0685,0.0685,0.0711,0.0722,0.0724,0.0742,0.0707,0.0711,0.0662,0.0657,0.0633,0.0585,0.0564,0.0576,0.0505,0.0504,0.0511,0.0534,0.0596,0.057,0.0508,0.0507,0.0507,0,0.0571,0.0606,0.0662,0.0716,0.073,0.0754,0.0798,0.082,0.0832,0.0834,0.0824,0.0792,0.0766,0.0718,0.0649,0.0659,0.0597,0.0555,0.0552,0.0542,0.0509,0.0539,0.057,0.0581,0.0505,0.0506,0.0506,0,0.059,0.0649,0.0698,0.0717,0.077,0.0795,0.0822,0.0847,0.0883,0.089,0.0909,0.0866,0.0853,0.0773,0.0677,0.0661,0.0601,0.0567,0.0515,0.0515,0.0547,0.0549,0.0587,0.0516,0.0516,0.0516,0.0516,0,0.0623,0.0662,0.0713,0.0744,0.0809,0.083,0.0897,0.0917,0.0956,0.1014,0.0956,0.0984,0.0865,0.0811,0.0709,0.0621,0.0623,0.0531,0.0511,0.0566,0.057,0.0563,0.0545,0.0514,0.0515,0.0515,0.0515,0,0.0637,0.067,0.0734,0.0797,0.0822,0.0869,0.0952,0.1004,0.1028,0.1099,0.1102,0.1074,0.1013,0.089,0.0771,0.0677,0.0591,0.0541,0.0615,0.0604,0.0564,0.0546,0.0526,0.0565,0.0482,0.0482,0.0482,0,0.0651,0.0685,0.0772,0.0817,0.0849,0.0923,0.0982,0.1036,0.11,0.1166,0.1207,0.1164,0.1162,0.0991,0.0825,0.0661,0.062,0.0592,0.0569,0.0586,0.0551,0.0529,0.0563,0.0627,0.0628,0.0629,0.063,0,0.0678,0.0706,0.0761,0.0855,0.0925,0.1012,0.11,0.1164,0.1242,0.1307,0.1385,0.1386,0.1242,0.1133,0.0904,0.0772,0.064,0.0606,0.061,0.0664,0.0656,0.0678,0.0623,0.0639,0.0638,0.0638,0.0637,0.0637,0.0696,0.0738,0.0811,0.0899,0.0983,0.1092,0.1175,0.1282,0.1401,0.1529,0.153,0.1596,0.1437,0.1148,0.0968,0.0738,0.0707,0.0678,0.0652,0.0626,0.0683,0.0648,0.0649,0.0648,0.0647,0.0647,0.0646,0,0.0717,0.0771,0.0854,0.0963,0.1055,0.1099,0.1249,0.135,0.1505,0.1656,0.1745,0.1792,0.157,0.1322,0.0997,0.084,0.0778,0.0753,0.0757,0.0787,0.0754,0.0783,0.0831,0.0831,0.0831,0.0831,0.0831,0.0831,0.0732,0.0806,0.0851,0.0999,0.108,0.1219,0.1311,0.1472,0.1622,0.1863,0.2004,0.2101,0.1996,0.1349,0.101,0.0909,0.0869,0.0801,0.0786,0.078,0.0772,0.0764,0.079,0.0839,0.0838,0.0879,0.0879,0.0879]}],[{"header":{"parameterUnit":"m.s-1","parameterCategory":2,"la1":30.2991,"la2":30.254,"lo1":-89.0895,"lo2":-89.0444,"dy":0.0017,"dx":0.0017,"nx":28,"ny":28,"refTime":"2025-01-30T09:00:00:Z","depth":"2","parameterNumber":2,"parameterNumberName":"U-component_of_CURRENTS"},"data":[0,0,0,0,0,0,0,0,0,0,0,0,0,0,0,0,0,0,0,0,0,0,0,0,0,0,0,0,0,0,0,0,0,0,0,0,0,0,0,0,0,0,0,0,0,0,0,0,0,0,0,0,0,0,0,0,0,0,0.2138,0.2138,0,0.2141,0.214,0.214,0.2136,0.2136,0.2136,0.2136,0.2134,0.2134,0.2134,0,0,0,0,0,0,0,0,0,0,0,0,0,0.2143,0.2143,0.2138,0.2138,0.2139,0.2141,0.214,0.214,0.2136,0.2136,0.2136,0.2136,0.2134,0.2134,0.2134,0,0,0,0,0,0,0,0,0,0,0,0,0,0.2142,0.2143,0.2138,0.2138,0.2138,0.2141,0.214,0.214,0.2136,0.2136,0.2136,0.2136,0.2134,0.2134,0.2134,0.2135,0,0,0.2134,0.2134,0,0,0,0,0,0,0,0,0.2142,0.2141,0.2137,0.2138,0.2138,0.2139,0.2142,0.2139,0.2136,0.2135,0.2136,0.2136,0.2136,0.2136,0.2135,0.2135,0.2135,0.2134,0.2134,0.2134,0.2134,0,0,0,0,0,0,0,0.2142,0.2141,0.2138,0.2138,0.2138,0.2142,0.2141,0.2141,0.2135,0.2135,0.2135,0.2138,0.2136,0.2135,0.2135,0.2135,0.2134,0.2134,0.2134,0.2134,0.2178,0.2179,0,0,0,0,0,0,0.2143,0.2141,0.2138,0.2138,0.2141,0.2142,0.2141,0.2138,0.2135,0.2135,0.2138,0.2137,0.2135,0.2135,0.2135,0.2165,0.2134,0.2134,0.2134,0.2177,0.2178,0.2179,0,0,0,0,0,0,0.2143,0.2143,0.2138,0.2141,0.2141,0.2142,0.2138,0.2138,0.2142,0.2137,0.2137,0.2143,0.2135,0.2135,0.2148,0.2164,0.2134,0.2134,0.2175,0.2177,0.2179,0.2207,0,0,0,0,0,0,0.2143,0.2143,0.2144,0.2141,0.2141,0.2145,0.2138,0.2138,0.2144,0.2144,0.2142,0.2141,0.2135,0.2148,0.2148,0.2163,0.2134,0.2174,0.2176,0.2178,0.2205,0.2209,0.2214,0,0,0,0,0,0.2143,0.2144,0.2144,0.2144,0.2141,0.2146,0.2146,0.2146,0.2144,0.2149,0.2153,0.2142,0.2162,0.2149,0.2149,0.2164,0.2173,0.2176,0.2178,0.2203,0.2209,0.2214,0,0,0,0,0,0,0.2146,0.2143,0.2143,0.2143,0.2148,0.2146,0.215,0.2151,0.2157,0.2159,0.2152,0.2152,0.2172,0.2167,0.2152,0.2186,0.2167,0.217,0.2186,0.2192,0.2196,0.2194,0.2134,0,0,0,0,0,0.2148,0.2146,0.2148,0.2149,0.2152,0.2153,0.2156,0.2158,0.2162,0.2164,0.2164,0.217,0.2182,0.2185,0.2192,0.2205,0.221,0.2218,0.2223,0.2226,0.2226,0.2262,0.227,0.2188,0.2188,0.2188,0,0,0.2148,0.2148,0.2146,0.2149,0.2152,0.2157,0.2154,0.2163,0.217,0.2163,0.2175,0.2185,0.219,0.2209,0.2217,0.2206,0.2252,0.223,0.2233,0.223,0.2266,0.2273,0.228,0.219,0.219,0.2189,0,0,0.2147,0.2149,0.2148,0.2155,0.2165,0.2166,0.2171,0.2177,0.2183,0.2201,0.2201,0.2223,0.2233,0.2242,0.2247,0.2282,0.2276,0.2286,0.2303,0.2339,0.2345,0.2352,0.2362,0.2369,0.2286,0.2286,0.2286,0,0.215,0.2146,0.215,0.2156,0.2164,0.2171,0.2178,0.2185,0.2196,0.2214,0.2211,0.2252,0.225,0.2281,0.229,0.2291,0.2303,0.2279,0.2344,0.235,0.2356,0.2366,0.2373,0.2288,0.2288,0.2288,0.2287,0,0.2147,0.215,0.2153,0.216,0.2172,0.2179,0.2193,0.221,0.2224,0.2239,0.228,0.2288,0.2315,0.232,0.2312,0.2354,0.2346,0.2347,0.2328,0.2366,0.2374,0.2381,0.229,0.229,0.2289,0.2289,0,0,0.2135,0.2147,0.2148,0.2152,0.2176,0.218,0.2208,0.2236,0.2258,0.2285,0.232,0.2345,0.2361,0.2369,0.2369,0.2391,0.2434,0.2384,0.2385,0.2389,0.25,0.2454,0.2457,0.245,0.2452,0.2453,0.2487,0,0.2131,0.2137,0.215,0.2158,0.2163,0.2191,0.2212,0.2246,0.228,0.2315,0.2349,0.2379,0.2376,0.239,0.2418,0.2433,0.2455,0.2423,0.2467,0.2467,0.2418,0.2465,0.225,0.2259,0.2494,0.2495,0.2495,0,0.2121,0.2128,0.2134,0.2156,0.2162,0.2173,0.222,0.2243,0.2306,0.2339,0.2394,0.2416,0.2458,0.2445,0.2505,0.2488,0.2496,0.2503,0.2504,0.2455,0.2435,0.2261,0.2263,0.2507,0.2506,0.2505,0.2504,0,0.2099,0.2115,0.2117,0.2125,0.2153,0.2171,0.2194,0.2255,0.2285,0.2357,0.2392,0.2454,0.2483,0.2519,0.2542,0.2529,0.2598,0.2585,0.2551,0.2547,0.2368,0.2346,0.2626,0.2626,0.2626,0.2626,0.2625,0,0.2083,0.2084,0.2103,0.2103,0.2115,0.2151,0.2182,0.2224,0.2291,0.2332,0.2398,0.2441,0.2505,0.2551,0.2563,0.2583,0.2625,0.256,0.256,0.2372,0.2351,0.2567,0.256,0.2627,0.2626,0.2626,0.2626,0,0.2052,0.2064,0.2065,0.2091,0.21,0.2111,0.2165,0.219,0.2263,0.2321,0.2344,0.2446,0.2511,0.2558,0.2616,0.2605,0.2626,0.2618,0.2383,0.2355,0.2541,0.2535,0.2584,0.2583,0.2582,0.2581,0.258,0,0.2034,0.203,0.2046,0.2045,0.2053,0.2078,0.2095,0.2168,0.2201,0.2319,0.234,0.2433,0.2477,0.2551,0.2542,0.2554,0.2618,0.2367,0.2307,0.2546,0.2541,0.2536,0.2532,0.2075,0.207,0.2066,0.2063,0,0.2002,0.2006,0.2006,0.2002,0.2009,0.2016,0.205,0.2071,0.216,0.2214,0.2284,0.233,0.2402,0.2328,0.2358,0.2339,0.2349,0.229,0.2607,0.2128,0.2071,0.2065,0.2076,0.2028,0.2032,0.2034,0.2036,0.2037,0.1977,0.1964,0.196,0.1949,0.1953,0.1939,0.1929,0.1971,0.2006,0.2055,0.216,0.2158,0.2186,0.2124,0.2059,0.2008,0.2181,0.208,0.2089,0.2104,0.2048,0.1994,0.1924,0.1927,0.193,0.1932,0.1934,0,0.1932,0.1919,0.1906,0.1879,0.1849,0.1878,0.1881,0.1849,0.1853,0.1911,0.1948,0.1797,0.1748,0.1771,0.1632,0.1637,0.1591,0.1573,0.1491,0.1528,0.156,0.1474,0.12,0.1197,0.1195,0.1193,0,0,0.1908,0.1871,0.1852,0.1776,0.1761,0.1697,0.1683,0.1647,0.1651,0.1612,0.159,0.1706,0.1742,0.1462,0.142,0.1283,0.1393,0.1228,0.1822,0.1764,0.1793,0.1864,0.1776,0,0,0,0,0]},{"header":{"parameterUnit":"m.s-1","parameterCategory":2,"la1":30.2991,"la2":30.254,"lo1":-89.0895,"lo2":-89.0444,"dy":0.0017,"dx":0.0017,"nx":28,"ny":28,"refTime":"2025-01-30T09:00:00:Z","depth":"2","parameterNumber":3,"parameterNumberName":"V-component_of_CURRENTS"},"data":[0,0,0,0,0,0,0,0,0,0,0,0,0,0,0,0,0,0,0,0,0,0,0,0,0,0,0,0,0,0,0,0,0,0,0,0,0,0,0,0,0,0,0,0,0,0,0,0,0,0,0,0,0,0,0,0,0,0,0.0355,0.0355,0,0.0342,0.0342,0.0341,0.0327,0.0327,0.0327,0.0327,0.0297,0.0296,0.0295,0,0,0,0,0,0,0,0,0,0,0,0,0,0.0327,0.0328,0.0355,0.0355,0.0355,0.0342,0.0342,0.0341,0.0327,0.0327,0.0327,0.0327,0.0297,0.0296,0.0295,0,0,0,0,0,0,0,0,0,0,0,0,0,0.0328,0.0328,0.0355,0.0347,0.0346,0.0342,0.0342,0.0341,0.0327,0.0327,0.0327,0.0327,0.0297,0.0296,0.0295,0.0292,0,0,0.0292,0.0291,0,0,0,0,0,0,0,0,0.0328,0.0329,0.0348,0.0347,0.0347,0.0337,0.0321,0.0324,0.0327,0.0333,0.0327,0.0327,0.0309,0.0307,0.0304,0.029,0.0289,0.0292,0.0291,0.0291,0.029,0,0,0,0,0,0,0,0.0328,0.0329,0.0349,0.0348,0.0347,0.033,0.033,0.0321,0.0321,0.0333,0.0332,0.0332,0.0309,0.0305,0.0303,0.0288,0.0292,0.0291,0.029,0.029,0.0277,0.0278,0,0,0,0,0,0,0.0335,0.033,0.0349,0.0348,0.0338,0.0331,0.0331,0.0339,0.0322,0.0319,0.0332,0.0332,0.0307,0.0304,0.0302,0.0314,0.0291,0.029,0.0289,0.0277,0.0278,0.0278,0,0,0,0,0,0,0.0334,0.0337,0.035,0.0339,0.0339,0.0332,0.0341,0.0339,0.0339,0.0322,0.0319,0.0335,0.0307,0.0303,0.0302,0.0312,0.0289,0.0288,0.0277,0.0277,0.0278,0.0327,0,0,0,0,0,0,0.0333,0.0337,0.0343,0.034,0.034,0.0354,0.0341,0.0339,0.034,0.0339,0.0323,0.032,0.0306,0.0304,0.0301,0.031,0.0287,0.0276,0.0277,0.0278,0.0325,0.0329,0.0332,0,0,0,0,0,0.0333,0.0345,0.0343,0.0346,0.035,0.0354,0.0353,0.0346,0.0341,0.0345,0.0336,0.0321,0.0306,0.0304,0.03,0.0309,0.0276,0.0277,0.0277,0.0323,0.0328,0.0332,0,0,0,0,0,0,0.0335,0.0345,0.0343,0.0357,0.0358,0.0352,0.0356,0.0351,0.0346,0.0345,0.0327,0.0324,0.0325,0.031,0.0309,0.0306,0.0287,0.0287,0.0323,0.0327,0.0331,0.0344,0.0286,0,0,0,0,0,0.0339,0.0353,0.0355,0.0366,0.0369,0.0363,0.0363,0.0359,0.0356,0.0354,0.0345,0.0333,0.0324,0.0321,0.031,0.0312,0.0295,0.0313,0.0317,0.0321,0.0329,0.0311,0.0314,0.028,0.028,0.028,0,0,0.0342,0.035,0.0356,0.0367,0.0367,0.0381,0.0363,0.0369,0.038,0.0351,0.0364,0.0346,0.0327,0.0329,0.0328,0.0319,0.0321,0.0322,0.0325,0.0331,0.0312,0.0315,0.0318,0.0281,0.0281,0.028,0,0,0.0358,0.0364,0.0381,0.0388,0.0395,0.0393,0.0398,0.0398,0.0398,0.0406,0.0386,0.0379,0.0369,0.0358,0.035,0.0368,0.034,0.036,0.0393,0.0376,0.0379,0.0381,0.0364,0.0364,0.0364,0.0364,0.0364,0,0.0359,0.0387,0.0385,0.0406,0.0418,0.0404,0.0426,0.0425,0.0424,0.043,0.0417,0.0404,0.0384,0.0388,0.0391,0.0378,0.0362,0.0379,0.0382,0.0383,0.0385,0.0366,0.0366,0.0366,0.0366,0.0366,0.0366,0,0.0392,0.0414,0.0426,0.0452,0.0461,0.0478,0.048,0.0487,0.0484,0.0482,0.0485,0.0458,0.0451,0.0439,0.042,0.0422,0.0406,0.0388,0.0373,0.0391,0.037,0.0369,0.037,0.0369,0.0368,0.0368,0,0,0.04,0.0442,0.0447,0.0472,0.049,0.0505,0.0523,0.0541,0.0563,0.0547,0.0569,0.0541,0.0523,0.0512,0.0483,0.0466,0.0456,0.0435,0.0433,0.0422,0.0418,0.0423,0.0421,0.0438,0.0438,0.0438,0.04,0,0.0427,0.048,0.0491,0.054,0.057,0.0571,0.0595,0.0606,0.0609,0.0626,0.0592,0.0596,0.0552,0.0548,0.0524,0.0476,0.0456,0.0469,0.0397,0.0396,0.0401,0.0421,0.041,0.0376,0.0398,0.0398,0.0398,0,0.046,0.0494,0.0548,0.06,0.0613,0.0637,0.0679,0.0701,0.0712,0.0714,0.0705,0.0675,0.065,0.0605,0.0537,0.0547,0.0488,0.0446,0.0443,0.0431,0.0398,0.036,0.0373,0.0396,0.0396,0.0396,0.0396,0,0.0479,0.0536,0.0583,0.0601,0.0652,0.0677,0.0704,0.0728,0.0762,0.077,0.0786,0.0746,0.0734,0.0656,0.0563,0.0549,0.0486,0.0453,0.0401,0.04,0.037,0.0367,0.0403,0.0403,0.0403,0.0403,0.0403,0,0.051,0.0549,0.0599,0.0629,0.0692,0.0713,0.0778,0.0797,0.0834,0.0889,0.0834,0.0858,0.0745,0.0691,0.0592,0.0503,0.0506,0.0416,0.0395,0.0387,0.0386,0.0384,0.0383,0.0402,0.0402,0.0402,0.0402,0,0.0525,0.0556,0.0619,0.0681,0.0705,0.0752,0.0833,0.0882,0.0905,0.0971,0.0975,0.0945,0.0883,0.0764,0.0648,0.0556,0.0458,0.0421,0.0421,0.0402,0.0373,0.0375,0.036,0.036,0.036,0.036,0.036,0,0.0538,0.0572,0.0657,0.0702,0.0733,0.0806,0.0863,0.0915,0.0975,0.1034,0.107,0.1028,0.1019,0.0848,0.0678,0.0515,0.048,0.039,0.0361,0.039,0.0371,0.0372,0.0374,0.0332,0.0332,0.0332,0.0332,0,0.0563,0.0592,0.0645,0.0738,0.0807,0.0891,0.0976,0.1035,0.1108,0.1167,0.1233,0.1228,0.1074,0.0917,0.0691,0.0562,0.0415,0.0382,0.0411,0.0354,0.0363,0.0345,0.0347,0.033,0.033,0.033,0.033,0.033,0.058,0.0621,0.0694,0.0781,0.0863,0.0966,0.1046,0.1142,0.1251,0.1348,0.1348,0.1344,0.1147,0.0864,0.0652,0.0417,0.0439,0.0333,0.0333,0.0334,0.0347,0.0356,0.0324,0.0324,0.0324,0.0324,0.0324,0,0.0599,0.0654,0.0734,0.0842,0.0928,0.0976,0.1117,0.1196,0.1333,0.1422,0.1483,0.1281,0.1105,0.0872,0.0545,0.0355,0.031,0.0264,0.0255,0.0259,0.0262,0.0271,0.0228,0.0227,0.0226,0.0225,0,0,0.0613,0.0683,0.0727,0.087,0.0954,0.1083,0.117,0.129,0.1382,0.1465,0.1475,0.1459,0.1185,0.0921,0.0646,0.0452,0.0394,0.039,0.0488,0.0515,0.0521,0.0321,0.0342,0,0,0,0,0]}],[{"header":{"parameterUnit":"m.s-1","parameterCategory":2,"la1":30.2991,"la2":30.254,"lo1":-89.0895,"lo2":-89.0444,"dy":0.0017,"dx":0.0017,"nx":28,"ny":28,"refTime":"2025-01-30T09:00:00:Z","depth":"4","parameterNumber":2,"parameterNumberName":"U-component_of_CURRENTS"},"data":[0,0,0,0,0,0,0,0,0,0,0,0,0,0,0,0,0,0,0,0,0,0,0,0,0,0,0,0,0,0,0,0,0,0,0,0,0,0,0,0,0,0,0,0,0,0,0,0,0,0,0,0,0,0,0,0,0,0,0.1371,0.1371,0,0.1418,0.1419,0.1419,0.1466,0.1466,0.1467,0.1468,0.1535,0.1537,0.1538,0,0,0,0,0,0,0,0,0,0,0,0,0,0.1323,0.1324,0.1371,0.1371,0.1372,0.1418,0.1419,0.1419,0.1466,0.1466,0.1467,0.1468,0.1535,0.1536,0.1538,0,0,0,0,0,0,0,0,0,0,0,0,0,0.1353,0.1324,0.1371,0.1402,0.1405,0.1418,0.1419,0.1419,0.1465,0.1466,0.1468,0.1469,0.1535,0.1536,0.1538,0.1527,0,0,0.1543,0.1544,0,0,0,0,0,0,0,0,0.1352,0.1355,0.1396,0.14,0.1403,0.1438,0.1427,0.1457,0.1465,0.1441,0.1468,0.1469,0.1505,0.1509,0.1514,0.153,0.1533,0.1543,0.1544,0.1545,0.1546,0,0,0,0,0,0,0,0.135,0.1353,0.1388,0.1397,0.1401,0.1414,0.142,0.1432,0.1466,0.1443,0.1447,0.1454,0.1507,0.1512,0.1516,0.1534,0.1543,0.1545,0.1546,0.1547,0.1641,0.1643,0,0,0,0,0,0,0.1345,0.1351,0.1387,0.139,0.1381,0.1414,0.142,0.1425,0.1465,0.1473,0.1453,0.1456,0.1508,0.1514,0.1518,0.159,0.1545,0.1547,0.1548,0.164,0.1642,0.1643,0,0,0,0,0,0,0.1343,0.1347,0.1385,0.1373,0.1379,0.1414,0.1419,0.1425,0.146,0.1473,0.1481,0.1485,0.1509,0.1516,0.1561,0.159,0.1547,0.1549,0.1638,0.164,0.1642,0.168,0,0,0,0,0,0,0.1342,0.1346,0.1363,0.1372,0.1379,0.1411,0.1418,0.1426,0.1461,0.1467,0.1502,0.1508,0.1511,0.1558,0.1562,0.1591,0.155,0.1636,0.1639,0.1642,0.1677,0.1683,0.1689,0,0,0,0,0,0.134,0.1352,0.1364,0.1369,0.1396,0.1411,0.1417,0.1444,0.1462,0.148,0.151,0.1508,0.1579,0.1561,0.1565,0.1595,0.1635,0.1638,0.1641,0.1674,0.1682,0.1688,0,0,0,0,0,0,0.1343,0.1358,0.1371,0.139,0.1409,0.142,0.1443,0.1459,0.1496,0.1513,0.1524,0.1532,0.1582,0.1585,0.1564,0.1632,0.1608,0.1612,0.1631,0.1638,0.1644,0.1638,0.1552,0,0,0,0,0,0.1349,0.1365,0.138,0.1399,0.141,0.1432,0.1449,0.1467,0.1493,0.1512,0.1537,0.1567,0.1593,0.1614,0.1634,0.1669,0.1669,0.1693,0.1699,0.1704,0.1704,0.1737,0.1746,0.1654,0.1654,0.1654,0,0,0.1356,0.1368,0.1379,0.1402,0.1421,0.1437,0.1446,0.1478,0.1502,0.1512,0.1565,0.159,0.1608,0.165,0.1672,0.166,0.173,0.1708,0.1712,0.1709,0.1742,0.1751,0.1758,0.1656,0.1656,0.1656,0,0,0.1365,0.139,0.1403,0.142,0.1453,0.1463,0.1479,0.1508,0.1536,0.1582,0.1598,0.1642,0.1684,0.1701,0.1713,0.1764,0.176,0.1778,0.1804,0.1838,0.1845,0.1852,0.1857,0.1863,0.1782,0.1782,0.1782,0,0.1378,0.1391,0.1411,0.1428,0.1449,0.1477,0.1497,0.1522,0.1567,0.1597,0.161,0.1689,0.1705,0.175,0.177,0.1777,0.1787,0.1774,0.1844,0.1851,0.1857,0.186,0.1867,0.1784,0.1784,0.1784,0.1784,0,0.1384,0.141,0.1422,0.1451,0.1476,0.15,0.1531,0.1571,0.1612,0.1641,0.1712,0.174,0.1788,0.1802,0.1802,0.1857,0.1847,0.1846,0.1822,0.1868,0.1869,0.1876,0.1787,0.1787,0.1786,0.1785,0,0,0.1372,0.1417,0.1425,0.1445,0.1493,0.1508,0.1559,0.1606,0.1647,0.1705,0.1759,0.1812,0.1843,0.1858,0.1871,0.1897,0.1945,0.1894,0.1895,0.1891,0.2007,0.1868,0.1861,0.1964,0.1965,0.1967,0.1987,0,0.1376,0.1405,0.1433,0.1471,0.1489,0.1538,0.1577,0.1631,0.1687,0.1745,0.1795,0.185,0.1859,0.1891,0.1923,0.1943,0.1966,0.1939,0.1969,0.1969,0.1834,0.1865,0.1972,0.1992,0.1993,0.1994,0.1995,0,0.1367,0.139,0.1427,0.1481,0.1495,0.1529,0.1606,0.1647,0.1732,0.1781,0.1855,0.1892,0.1952,0.1946,0.2011,0.1998,0.2008,0.2014,0.2015,0.1874,0.1842,0.1939,0.2007,0.2006,0.2005,0.2004,0.2003,0,0.1331,0.1384,0.1415,0.1434,0.1498,0.1539,0.1585,0.1669,0.1713,0.1812,0.1857,0.1936,0.1981,0.2019,0.2045,0.204,0.2096,0.2089,0.1969,0.1959,0.2061,0.2054,0.2127,0.2127,0.2127,0.2127,0.2127,0,0.1305,0.1333,0.1406,0.142,0.1466,0.1527,0.1591,0.1651,0.174,0.179,0.1877,0.1919,0.2006,0.2047,0.2061,0.2028,0.2116,0.1969,0.1956,0.2075,0.207,0.2065,0.2057,0.2128,0.2128,0.2128,0.2128,0,0.1253,0.1302,0.1339,0.1419,0.1449,0.1486,0.1586,0.1625,0.1722,0.1789,0.1823,0.1927,0.1977,0.203,0.2084,0.203,0.2022,0.1989,0.2102,0.2096,0.1857,0.1851,0.1848,0.1843,0.1839,0.1836,0.1833,0,0.1224,0.124,0.1328,0.1354,0.1395,0.1463,0.1504,0.1608,0.1648,0.1776,0.1791,0.188,0.1934,0.1889,0.1965,0.1964,0.1946,0.1917,0.1888,0.184,0.183,0.1831,0.183,0.1827,0.1826,0.1825,0.1824,0,0.1169,0.1215,0.1247,0.1299,0.1348,0.1388,0.1458,0.1474,0.1587,0.1688,0.1709,0.1729,0.1773,0.1806,0.1812,0.1817,0.1921,0.1875,0.1883,0.1856,0.1815,0.1808,0.1813,0.181,0.1812,0.1813,0.1814,0,0.1134,0.1142,0.1193,0.1226,0.1282,0.1292,0.1339,0.1375,0.1423,0.1557,0.1567,0.1659,0.1758,0.173,0.1746,0.1727,0.1701,0.1635,0.1655,0.1671,0.1603,0.1525,0.1416,0,0,0,0,0,0.1091,0.1086,0.1112,0.1137,0.1187,0.122,0.1294,0.1343,0.1452,0.1421,0.1485,0.1518,0.1533,0.1589,0.1533,0.1675,0.1713,0.1602,0.1649,0.1733,0.1749,0.1686,0,0,0,0,0,0,0.1059,0.1082,0.108,0.1055,0.106,0.1099,0.1144,0.1216,0.1203,0.132,0.1337,0.1421,0.1463,0.155,0.1506,0.152,0.1513,0.1665,0.166,0.1724,0.1738,0.1751,0.1692,0,0,0,0,0]},{"header":{"parameterUnit":"m.s-1","parameterCategory":2,"la1":30.2991,"la2":30.254,"lo1":-89.0895,"lo2":-89.0444,"dy":0.0017,"dx":0.0017,"nx":28,"ny":28,"refTime":"2025-01-30T09:00:00:Z","depth":"4","parameterNumber":3,"parameterNumberName":"V-component_of_CURRENTS"},"data":[0,0,0,0,0,0,0,0,0,0,0,0,0,0,0,0,0,0,0,0,0,0,0,0,0,0,0,0,0,0,0,0,0,0,0,0,0,0,0,0,0,0,0,0,0,0,0,0,0,0,0,0,0,0,0,0,0,0,0.0173,0.0173,0,0.0169,0.0168,0.0168,0.0165,0.0165,0.0165,0.0165,0.0151,0.0151,0.015,0,0,0,0,0,0,0,0,0,0,0,0,0,0.0151,0.0152,0.0173,0.0173,0.0173,0.0169,0.0168,0.0168,0.0165,0.0165,0.0165,0.0165,0.0151,0.0151,0.015,0,0,0,0,0,0,0,0,0,0,0,0,0,0.0155,0.0152,0.0173,0.0171,0.0171,0.0169,0.0168,0.0168,0.0165,0.0165,0.0165,0.0165,0.0151,0.0151,0.015,0.0146,0,0,0.0148,0.0148,0,0,0,0,0,0,0,0,0.0155,0.0155,0.0171,0.0171,0.0171,0.0168,0.0156,0.0161,0.0165,0.0166,0.0165,0.0165,0.0156,0.0155,0.0154,0.0145,0.0145,0.0148,0.0148,0.0148,0.0148,0,0,0,0,0,0,0,0.0154,0.0155,0.017,0.0171,0.0171,0.0161,0.0162,0.0157,0.016,0.0166,0.0166,0.0167,0.0156,0.0154,0.0153,0.0145,0.0148,0.0148,0.0147,0.0147,0.0145,0.0146,0,0,0,0,0,0,0.0158,0.0156,0.0171,0.017,0.0163,0.0162,0.0163,0.0168,0.0161,0.016,0.0167,0.0167,0.0155,0.0154,0.0153,0.0168,0.0148,0.0147,0.0147,0.0145,0.0146,0.0146,0,0,0,0,0,0,0.0157,0.0159,0.0171,0.0163,0.0164,0.0163,0.0169,0.0168,0.0172,0.0161,0.016,0.0172,0.0155,0.0153,0.0157,0.0167,0.0147,0.0146,0.0145,0.0145,0.0146,0.0186,0,0,0,0,0,0,0.0157,0.0159,0.0165,0.0163,0.0164,0.0176,0.0169,0.0168,0.0172,0.0172,0.0165,0.0164,0.0155,0.0158,0.0157,0.0166,0.0146,0.0144,0.0145,0.0146,0.0184,0.0188,0.019,0,0,0,0,0,0.0156,0.0165,0.0165,0.0167,0.0172,0.0176,0.0176,0.0174,0.0173,0.0177,0.0175,0.0164,0.016,0.0158,0.0156,0.0165,0.0144,0.0145,0.0146,0.0183,0.0187,0.019,0,0,0,0,0,0,0.0157,0.0165,0.0165,0.0176,0.0178,0.0176,0.018,0.0179,0.018,0.0181,0.017,0.0169,0.0174,0.0164,0.0161,0.0165,0.015,0.015,0.0178,0.0182,0.0185,0.0195,0.0145,0,0,0,0,0,0.016,0.017,0.0173,0.0182,0.0185,0.0184,0.0185,0.0185,0.0185,0.0186,0.0183,0.0178,0.0174,0.0174,0.0168,0.0173,0.0157,0.0176,0.0179,0.0182,0.0188,0.0172,0.0174,0.0148,0.0148,0.0148,0,0,0.0161,0.0168,0.0173,0.0183,0.0185,0.0197,0.0185,0.0192,0.0204,0.0184,0.0201,0.0189,0.0177,0.0183,0.0184,0.0177,0.018,0.0183,0.0185,0.019,0.0173,0.0175,0.0178,0.0149,0.0148,0.0148,0,0,0.0172,0.0178,0.0191,0.0198,0.0206,0.0207,0.0212,0.0216,0.0219,0.023,0.0218,0.0216,0.0213,0.0208,0.0203,0.022,0.0197,0.0216,0.0243,0.0227,0.0229,0.0231,0.0212,0.0212,0.0219,0.0219,0.0219,0,0.0173,0.0194,0.0194,0.0211,0.0222,0.0216,0.0234,0.0237,0.0243,0.025,0.0241,0.0239,0.0226,0.0233,0.0237,0.0228,0.0214,0.0231,0.0232,0.0233,0.0234,0.0214,0.0214,0.0221,0.0221,0.0221,0.022,0,0.0196,0.0215,0.0224,0.0247,0.0256,0.0271,0.0278,0.0288,0.029,0.0292,0.0301,0.0283,0.0283,0.0275,0.0262,0.0265,0.025,0.0237,0.0224,0.0239,0.0217,0.0216,0.0224,0.0223,0.0223,0.0222,0,0,0.0196,0.0233,0.0238,0.026,0.0279,0.0292,0.0313,0.0331,0.0352,0.0346,0.0367,0.0352,0.034,0.0334,0.0314,0.0299,0.0289,0.0275,0.0273,0.0259,0.0252,0.0234,0.023,0.0276,0.0276,0.0276,0.0233,0,0.0216,0.0258,0.027,0.0312,0.0336,0.0344,0.0368,0.0383,0.039,0.0407,0.0386,0.0395,0.0364,0.0365,0.0345,0.0305,0.0287,0.0302,0.0236,0.0235,0.0219,0.0229,0.0276,0.0232,0.0232,0.0231,0.0231,0,0.0237,0.0265,0.0309,0.0357,0.0369,0.0393,0.0434,0.0457,0.0472,0.0477,0.0476,0.0457,0.044,0.0407,0.035,0.0361,0.0312,0.0275,0.0273,0.0242,0.0214,0.0213,0.0228,0.0228,0.0228,0.0229,0.0229,0,0.0244,0.0294,0.0333,0.035,0.0398,0.0424,0.0452,0.048,0.051,0.0524,0.0537,0.0511,0.0504,0.0441,0.0363,0.0357,0.0293,0.0273,0.021,0.0208,0.0219,0.0217,0.023,0.023,0.023,0.023,0.023,0,0.0261,0.0294,0.0344,0.0369,0.0424,0.045,0.0509,0.053,0.0567,0.0608,0.0577,0.0589,0.0512,0.0463,0.0382,0.0294,0.0306,0.0218,0.0198,0.0236,0.0237,0.0217,0.0216,0.0228,0.0229,0.0229,0.0229,0,0.0261,0.0293,0.0345,0.0406,0.0431,0.0473,0.055,0.0591,0.0619,0.0668,0.0674,0.0652,0.0593,0.0503,0.0404,0.0327,0.0238,0.02,0.0252,0.0234,0.0157,0.0158,0.0128,0.0127,0.0127,0.0126,0.0125,0,0.0264,0.0291,0.037,0.0409,0.0441,0.0509,0.0559,0.0614,0.0659,0.0705,0.0725,0.069,0.0658,0.0509,0.0408,0.0255,0.0226,0.0172,0.016,0.0164,0.0147,0.015,0.0153,0.0124,0.0124,0.0124,0.0123,0,0.0269,0.0299,0.0342,0.0422,0.0484,0.0556,0.063,0.0666,0.0732,0.0754,0.0768,0.0699,0.0633,0.0515,0.0399,0.0286,0.0203,0.0163,0.0164,0.0152,0.0158,0.0143,0.0147,0.0121,0.0121,0.0121,0.0121,0,0.0272,0.0301,0.0362,0.0433,0.051,0.0584,0.0626,0.0685,0.0734,0.0784,0.0788,0.072,0.0693,0.0531,0.0423,0.0313,0.0276,0.0221,0.0218,0.022,0.0253,0.0275,0.0261,0,0,0,0,0,0.0273,0.0308,0.0371,0.0452,0.0527,0.0577,0.0666,0.0704,0.0765,0.0778,0.0788,0.0727,0.0586,0.0528,0.0415,0.0388,0.0244,0.0248,0.0176,0.0105,0.0108,0.0129,0,0,0,0,0,0,0.0274,0.0326,0.0363,0.0453,0.0511,0.0598,0.0659,0.0703,0.0713,0.0755,0.0684,0.0674,0.0537,0.0649,0.0405,0.0374,0.0305,0.0193,0.0189,0.0103,0.0106,0.0109,0.0131,0,0,0,0,0]}]]